SCP
0 0 0 0 0 0 0 0 0 0 0 0 0 0 0 0 0 0 0 0 0 0 0 0 0 0 0 0 0 0 0 0 0 0 0 0 0 0 0 0 0 0 0 0 0 0 0 0 0 0 0 0 0 0
0 0 0 0 0 0 0 0 0 0 0 0 0 0 0 0 0 0 0 0 0 0 0 0 0 0 0 0 0 0 0 0 0 0 0 0 0 0 0 0 0 0 0 0 0 0 0 0 0 0 0 0 0 0
0 0 0 0 0 0 0 0 0 0 0 0 0 0 0 0 0 0 0 0 0 0 0 0 0 0 0 0 0 0 0 0 0 0 0 0 0 0 0 0 0 0 0 0 0 0 0 0 0 0 0 0 0 0
0 0 0 0 0 0 0 0 0 0 0 0 0 0 0 -0 0 0 0 0 0 0 0 0 0 0 0 0 0 0 0 0 0 0 0 0 0 0 0 0 0 0 0 0 0 0 0 0 0 0 0 0 0 0
0 0 0 0 0 0 0 0 0 0 0 0 0 0 0 0 0 0 0 0 0 0 0 0 0 0 0 0 0 0 0 0 0 0 0 0 0 0 0 0 0 0 0 0 0 0 0 0 0 0 0 0 0 0
0 0 0 0 0 0 0 0 0 0 -0 0 -0 0 0 0 0 0 0 0 0 0 0 0 0 0 0 0 0 0 0 0 0 0 0 0 0 0 0 0 0 0 0 0 0 0 0 0 0 0 0 0 0 0
0 0 0 0 0 0 -0 0 -0 -0 0 0 -0 -0 0 0 0 0 0 0 0 0 0 0 0 0 0 0 0 0 0 0 0 0 0 0 0 0 0 0 0 0 0 0 0 0 0 0 0 0 0 0 0 0
0 0 0 0 0 0 0 0 -0 -0 -0 0 -0 -0 0 0 0 0 0 0 0 0 0 0 0 0 0 0 0 0 0 0 0 0 0 0 0 0 0 0 -0 0 0 0 0 0 0 0 0 0 0 0 0 0
0 0 0 0 0 0 0 -0 -0 -0 0 -0 0 -0 0 0 0 0 0 0 0 0 0 0 0 0 0 0 0 0 0 0 0 0 0 0 0 0 0 0 0 0 0 0 0 0 0 0 0 0 0 0 -0 0
0 0 0 0 0 0 0 -0 0 0 0 0 0 0 0 0 -0 0 0 0 0 0 0 0 0 0 0 0 0 0 0 0 0 0 0 0 0 0 0 -0 0 0 0 0 0 0 0 0 0 0 -0 -0 0 0
0 0 0 0 -0 -0 -0 -0 0 0 0 0 0 0 0 0 0 0 0 0 0 -0 -0 0 0 0 0 0 0 0 0 -0 0 0 -0 0 0 0 0 0 0 0 0 0 0 0 0 0 -0 0 0 0 0 0
0 0 0 -0 -0 -0 -0 -0 0 0 0 0 0 0 0 0 0 0 0 0 -0 0 0 0 -0 -0 0 0 0 0 -0 0 0 0 0 -0 0 0 -0 0 0 0 0 0 0 0 -0 -0 -0 -0 -0 -0 0 -0
0 0 -0 -0 -0 -0 -0 -0 0 0 0 0 0 0 0 0 0 0 0 0 0 0 0 0 0 0 0 0 0 0 0 0 0 0 0 0 0 -0 0 0 0 0 0 0 0 0 -0 -0 -0 -0 -0 0 0 0
-0 -0 -0 -0 -0 -0 -0 -0 0 0 0 0 0 0 0 0 0 0 0 0 0 0 0 0 0 0 0 0 -0 0 0 0 0 0 0 0 0 0 -0 0 0 0 0 0 0 -0 -0 -0 -0 -0 -0 0 0 -0
-0 -0 -0 -0 -0 -0 0 0 0 0 0 0 0 0 0 0 0 0 0 0 0 0 0 0 0 0 0 0 0 0 0 0 0 -0 -0 0 0 -0 -0 0 0 0 0 0 0 -0 -0 -0 -0 -0 -0 -0 -0 -0
-0 -0 0 -0 -0 0 0 0 0 0 0 0 0 0 0 0 0 -0 -0 0 0 0 0 0 0 0 0 0 0 0 0 0 0 -0 -0 0 0 -0 -0 -0 -0 0 0 0 0 -0 -0 -0 -0 -0 -0 -0 -0 -0
-0 0 -0 -0 -0 0 0 0 0 0 0 0 0 0 0 0 0 0 -0 -0 0 0 0 0 -0 -0 0 0 0 -0 0 0 0 -0 0 0 -0 -0 -0 -0 -0 -0 0 0 0 0 0 -0 -0 -0 -0 -0 -0 -0
0 0 -0 -0 -0 0 0 0 0 0 0 0 0 0 0 0 0 0 -0 -0 0 0 0 0 -0 0 0 -0 -0 -0 0 0 -0 -0 -0 -0 -0 -0 -0 -0 -0 -0 -0 0 0 0 0 -0 -0 -0 -0 -0 -0 -0
0 -0 -0 -0 0 0 0 0 0 0 0 0 0 0 0 0 -0 0 0 0 0 0 0 0 -0 0 0 -0 0 -0 0 -0 -0 -0 -0 -0 -0 -0 -0 -0 -0 -0 -0 -0 0 0 0 -0 -0 -0 -0 -0 -0 -0
-0 -0 -0 -0 0 0 0 0 0 0 0 0 0 0 0 0 0 0 0 0 0 0 0 0 -0 0 -0 -0 0 0 0 0 0 0 0 -0 -0 -0 -0 -0 -0 -0 -0 -0 -0 -0 0 0 -0 -0 -0 -0 -0 -0
0 0 0 0 0 0 0 0 0 0 0 0 0 0 0 0 0 0 0 0 0 0 0 0 -0 0 0 0 0 0 0 0 0 0 0 -0 -0 -0 0 -0 -0 -0 -0 -0 -0 -0 -0 -0 -0 0 0 -0 -0 -0
0 0 0 0 0 0 0 0 0 0 0 0 0 0 0 0 0 0 0 0 0 0 0 0 0 0 0 0 0 0 0 0 -0 0 0 0 0 0 0 0 -0 -0 -0 -0 -0 -0 0 -0 -0 -0 0 -0 0 0
0 0 0 0 0 0 0 0 0 -0 0 0 0 0 0 0 0 0 0 0 0 0 0 0 0 0 0 0 0 0 0 -0 0 -0 -0 0 -0 -0 -0 0 0 0 0 0 -0 -0 -0 -0 -0 -0 0 0 0 0
0 0 0 0 0 0 0 0 0 0 0 0 0 0 0 0 0 0 0 0 0 0 0 0 0 0 0 0 0 0 0 -0 -0 -0 -0 0 0 -0 -0 0 0 0 0 0 0 0 0 0 -0 -0 -0 0 0 0
0 0 0 0 0 0 0 0 0 0 0 0 0 0 0 0 0 0 0 0 0 0 0 0 0 0 0 0 0 0 0 0 -0 0 -0 0 0 0 0 0 0 0 0 0 0 0 0 0 0 0 0 0 0 0
0 0 0 0 0 0 0 0 0 0 0 0 -0 0 0 0 0 0 0 0 0 0 0 0 0 0 0 0 0 0 0 0 0 0 0 0 -0 -0 -0 0 0 0 0 0 0 0 0 0 0 0 0 0 0 0
0 0 0 0 0 0 0 0 0 0 -0 0 0 0 0 0 0 0 0 0 0 0 0 0 0 0 0 0 0 0 0 0 0 0 0 0 0 0 -0 -0 0 0 0 0 0 0 0 0 0 0 0 0 0 0
0 0 0 0 0 0 0 0 -0 0 0 0 -0 0 0 0 0 0 0 0 0 0 0 0 0 0 0 0 0 0 0 0 0 0 0 0 0 0 0 0 0 0 0 0 0 0 0 0 0 0 0 0 0 0
0 0 0 0 0 0 0 0 0 -0 -0 -0 -0 0 -0 0 0 0 0 0 0 0 0 0 0 0 0 0 0 0 0 0 0 0 0 0 0 0 0 0 0 0 0 0 0 0 0 0 0 0 0 0 0 0
0 0 0 0 0 0 0 0 0 0 0 0 0 -0 0 0 0 0 0 0 0 0 0 0 0 0 0 0 0 0 0 0 0 0 0 0 0 0 0 0 0 0 0 0 0 0 -0 -0 0 0 0 0 0 0
-0 -0 -0 -0 0 -0 0 0 0 0 0 0 0 0 0 0 0 0 0 0 0 0 0 0 0 0 0 0 0 0 0 0 0 0 0 0 0 0 0 0 0 0 0 0 0 0 0 0 0 0 0 0 0 0
0 -0 -0 -0 0 0 0 0 0 0 0 0 0 0 0 0 0 0 0 0 0 0 0 0 0 0 0 0 0 0 -0 0 0 0 -0 0 0 0 0 0 0 0 0 0 0 0 0 0 0 0 0 0 0 0
0 0 0 0 0 0 0 0 0 0 0 0 0 0 0 0 0 0 0 0 0 0 0 0 0 0 0 0 0 0 0 0 0 0 0 0 0 0 0 0 0 0 0 0 0 0 0 0 0 0 0 0 0 0
Wind_Speed_500mb
37 34 37 39 37 33 31 31 35 33 35 36 35 22 17 16 13 15 12 11 8 7 22 19 9 5 2 6 6 4 5 5 6 4 3 2 1 1 2 1 5 6 5 5 6 8 12 6 16 4 2 20 20 18
35 34 35 40 41 38 32 30 31 34 35 34 32 28 19 17 19 14 23 14 12 13 13 19 32 34 19 12 4 6 3 4 5 5 3 3 4 3 5 5 4 4 5 3 8 8 5 7 16 11 8 13 20 26
39 36 37 38 40 40 35 32 33 34 36 33 31 30 22 19 16 20 20 15 10 14 17 7 7 12 11 6 15 4 4 6 6 8 7 3 4 4 2 7 4 7 5 5 1 2 7 15 14 15 15 14 21 15
35 35 35 36 35 37 36 34 33 34 33 33 34 28 21 21 26 8 18 18 14 6 2 5 9 12 14 12 7 5 9 11 17 9 5 4 4 5 3 6 6 11 5 5 8 3 5 20 18 21 11 11 15 19
36 37 31 33 32 33 37 35 32 32 33 37 31 21 19 19 23 24 18 16 13 4 3 14 14 5 17 17 5 3 11 15 7 6 4 4 4 0 5 2 6 4 5 3 7 6 6 1 9 11 6 13 22 26
37 32 33 33 32 35 40 36 30 30 32 36 21 13 16 17 13 8 7 24 13 8 3 4 6 5 19 19 10 16 9 6 4 6 4 5 10 4 3 5 6 10 12 9 3 14 1 10 7 7 10 13 21 26
36 33 31 31 32 33 33 35 27 32 30 27 15 7 15 21 15 11 3 2 14 14 3 6 10 5 24 20 12 9 7 4 4 6 3 5 7 19 5 5 6 4 3 4 8 7 5 9 5 10 18 23 27 28
36 36 32 31 30 33 33 34 27 28 24 20 11 8 18 14 13 18 11 14 16 5 4 2 6 1 24 9 7 7 6 5 3 6 5 6 5 10 6 14 11 12 8 13 11 11 7 3 8 17 21 31 37 31
43 36 31 27 28 31 34 29 25 24 19 15 11 9 17 10 9 9 22 16 7 3 3 4 5 6 14 9 8 5 7 4 10 4 6 8 5 7 10 10 6 14 10 11 12 9 9 15 19 20 28 32 39 35
41 32 31 29 27 29 27 27 22 17 14 12 23 4 6 9 11 21 6 4 4 5 6 4 5 4 6 11 7 9 3 3 3 8 7 6 5 6 4 12 16 16 12 10 7 8 11 15 17 23 26 32 38 45
38 34 35 31 26 27 25 24 19 15 10 4 6 5 19 18 6 4 4 3 4 3 9 10 18 4 3 5 5 7 4 2 4 5 5 4 4 4 14 23 22 18 16 14 14 13 14 15 18 26 33 30 40 45
37 35 37 30 23 25 21 23 14 10 8 9 8 14 13 3 2 3 4 3 5 6 10 11 13 17 4 4 6 3 4 5 7 11 4 4 4 9 30 28 26 19 18 20 17 16 16 16 16 29 44 29 40 40
38 37 36 27 22 22 18 16 12 11 12 14 5 5 6 4 4 5 7 5 4 6 12 13 5 11 6 5 3 0 7 7 5 4 3 3 11 18 31 34 26 20 21 19 18 16 16 14 15 30 43 30 41 40
35 39 34 23 20 16 16 8 11 8 7 4 5 6 4 5 6 7 5 4 8 5 14 26 11 5 5 5 5 6 6 3 3 4 3 3 20 36 37 32 26 23 19 17 14 14 20 20 16 29 37 36 45 51
38 30 15 21 13 12 9 11 24 8 2 2 1 4 8 12 11 11 16 6 6 9 29 17 9 6 1 2 4 5 4 5 4 4 5 18 37 39 37 31 23 25 20 16 12 16 19 22 20 31 33 38 43 49
37 21 11 10 4 6 8 13 15 11 2 2 5 5 7 4 3 10 3 6 4 17 17 9 5 4 5 4 5 7 2 4 4 5 22 40 35 34 35 26 21 24 16 12 14 12 9 22 29 37 39 36 45 46
27 9 16 7 6 2 6 7 4 3 3 4 6 14 22 23 21 14 7 7 18 5 4 5 6 11 4 5 4 5 6 4 8 30 44 38 34 34 34 28 26 25 21 17 15 12 11 17 24 33 45 41 43 51
24 19 20 18 3 4 8 1 3 3 6 8 9 7 9 16 18 12 14 17 13 7 5 5 2 5 6 5 5 6 10 11 23 45 38 32 31 31 31 27 21 19 18 18 18 16 14 16 25 32 38 41 40 50
22 21 11 7 10 3 1 2 3 4 8 11 17 17 18 15 17 15 7 19 10 16 5 4 3 5 6 8 8 15 23 18 38 38 33 26 26 28 29 27 20 16 17 19 14 15 15 18 26 31 35 43 49 48
19 14 4 6 12 2 1 2 3 5 7 9 15 14 14 18 17 13 16 17 16 8 6 5 7 5 6 7 9 14 27 33 38 35 34 30 27 25 26 27 26 20 16 15 16 13 12 14 21 28 33 40 45 53
8 8 4 4 11 5 3 4 6 7 8 10 16 14 12 14 10 11 24 25 16 8 6 14 12 9 6 9 5 15 37 39 40 34 37 36 28 31 29 26 30 22 18 20 17 14 8 10 16 22 29 36 39 42
3 7 6 11 3 3 6 7 7 9 7 11 15 7 10 7 5 5 16 10 8 15 18 23 19 12 12 14 13 21 40 25 32 27 24 29 36 33 32 31 28 30 17 17 15 13 12 11 11 14 21 27 32 35
4 18 6 7 5 4 5 7 7 7 4 6 9 5 5 5 5 4 6 9 14 25 27 21 16 14 18 17 25 25 28 31 30 30 31 27 28 29 29 28 25 31 28 23 17 13 12 11 10 9 13 20 24 28
6 6 4 5 8 5 5 7 7 6 6 5 3 6 5 6 3 1 3 6 20 17 14 15 17 17 19 20 27 33 29 28 36 29 37 40 34 34 32 25 29 33 29 25 21 17 14 10 8 7 8 11 17 21
6 7 6 7 8 7 7 5 5 1 4 3 4 5 5 3 1 2 2 7 24 27 11 8 19 23 20 20 24 25 23 27 21 34 29 37 38 32 28 34 37 33 33 26 23 17 15 10 7 8 8 6 10 15
6 11 10 11 7 7 6 5 8 9 6 6 8 5 4 2 2 4 2 9 15 22 24 15 9 3 11 22 28 33 25 36 13 30 31 36 42 29 46 47 42 35 31 24 20 17 13 11 9 8 10 9 9 11
6 8 13 14 9 8 6 8 5 3 6 5 2 3 3 2 5 3 8 5 8 13 9 11 9 11 15 14 20 24 28 36 30 25 41 44 41 29 31 42 35 28 31 28 21 14 10 11 13 11 8 7 5 11
10 7 9 11 12 13 5 3 7 5 3 2 7 3 4 4 1 5 6 5 8 7 7 11 10 10 12 18 22 30 26 35 37 24 41 45 46 39 30 25 22 24 25 18 17 18 14 9 10 11 9 2 3 8
9 9 6 9 12 8 10 7 5 7 9 4 2 3 3 2 4 4 11 12 13 9 10 9 8 6 6 14 20 37 39 26 48 40 49 43 44 43 37 35 32 29 20 16 15 13 13 11 11 9 5 3 7 12
9 12 7 6 6 7 7 6 3 6 8 4 2 3 2 2 4 8 12 14 14 14 13 8 4 11 15 18 27 28 24 32 43 39 32 28 33 40 40 35 30 23 20 20 22 23 20 17 14 9 3 4 7 10
6 9 8 9 6 5 8 11 9 4 6 8 4 9 7 4 5 9 8 9 8 8 8 8 8 10 20 24 26 34 35 44 41 35 21 18 32 40 35 28 26 25 25 22 19 16 14 14 11 7 6 8 10 13
8 7 5 4 1 12 10 4 5 4 3 4 4 4 5 4 5 4 3 4 4 3 4 11 19 15 7 14 38 37 37 42 36 27 24 32 38 37 33 27 22 18 17 18 16 17 20 18 13 10 9 10 11 11
3 5 4 2 5 6 6 9 7 4 6 5 8 11 12 9 7 6 4 3 4 5 3 6 16 25 22 22 24 28 32 37 37 30 21 25 25 26 24 17 12 10 12 13 16 17 16 14 11 7 5 5 6 9
Wind_Direction_500mb
323 327 327 326 326 323 320 324 324 327 326 323 323 286 260 252 251 257 253 237 256 263 285 275 231 122 81 134 143 203 45 351 29 72 77 298 154 141 188 245 198 208 216 196 190 214 257 10 357 318 270 291 329 333
322 323 325 328 326 324 322 322 325 324 325 325 323 317 252 238 243 254 254 221 247 265 272 275 272 257 261 223 194 161 178 173 169 104 112 325 333 21 163 284 95 224 214 209 221 225 248 219 244 219 222 272 294 313
321 320 314 318 321 325 322 320 323 320 322 321 318 317 246 232 239 245 249 233 237 284 298 314 16 162 175 143 197 173 205 197 156 122 137 112 266 126 250 244 284 319 195 216 151 231 213 197 203 237 228 267 290 289
320 318 313 319 320 319 319 319 320 319 321 319 316 307 244 224 226 308 222 248 240 284 350 270 74 133 169 179 197 210 246 190 150 144 121 146 222 193 243 246 197 226 297 268 263 257 199 243 260 276 289 272 312 316
316 318 307 312 315 324 323 317 312 316 322 322 318 301 231 215 221 251 252 237 199 243 238 299 311 297 210 212 204 240 185 158 142 115 115 212 241 175 263 276 254 213 191 173 243 288 249 351 57 28 335 323 320 317
318 313 312 312 309 320 317 322 311 313 322 328 315 300 210 209 202 201 224 217 213 232 281 322 322 352 178 215 160 145 148 128 103 147 179 250 249 211 262 253 247 247 250 191 258 319 47 138 21 356 335 329 321 315
325 311 309 312 315 317 311 318 310 309 315 326 304 250 210 211 225 203 219 218 204 208 220 324 337 82 187 160 149 159 162 152 139 159 203 240 265 192 249 234 218 322 269 139 68 150 49 20 350 354 337 330 329 321
320 323 309 309 312 313 313 317 316 320 315 312 280 209 182 216 229 203 176 159 150 189 176 120 276 333 194 176 140 193 182 173 187 184 230 229 250 213 258 243 250 205 118 82 82 78 92 83 2 352 344 339 338 336
320 319 317 310 309 314 313 313 309 318 300 294 289 201 183 165 177 180 173 167 176 226 196 159 168 214 173 168 126 155 182 217 178 216 232 178 203 225 231 174 245 237 189 139 86 51 54 13 6 356 349 352 354 336
325 316 320 312 306 318 313 321 314 305 287 244 162 76 102 136 164 160 140 196 212 214 211 212 216 250 188 159 153 171 169 221 242 222 193 211 249 281 119 225 174 144 128 145 110 69 27 26 17 3 350 337 336 346
322 318 316 313 312 317 309 325 323 320 170 135 158 91 131 137 112 137 160 205 180 276 211 222 204 202 124 125 179 188 176 251 248 221 205 235 251 270 126 132 133 125 117 102 100 89 70 32 32 20 2 345 335 346
312 314 311 304 302 310 304 304 299 238 226 171 145 128 147 154 194 207 199 155 220 242 192 176 194 198 148 113 93 185 243 205 244 157 223 232 178 169 152 140 134 123 116 107 71 82 50 40 25 16 12 12 1 355
311 312 307 299 290 299 280 305 288 235 192 139 128 128 161 167 185 220 202 209 224 213 184 166 123 158 127 115 145 219 240 236 173 229 229 226 184 170 150 144 135 125 125 109 78 73 49 40 7 10 11 18 12 4
311 311 308 307 292 276 286 312 195 118 150 155 167 153 222 172 247 202 223 181 285 247 199 155 115 121 138 151 205 252 245 276 256 236 204 174 164 155 154 152 140 133 128 120 82 81 59 37 21 7 17 32 23 11
315 310 328 334 284 265 259 210 205 204 153 224 219 219 215 246 262 331 310 245 252 298 159 119 86 109 155 255 223 266 249 248 232 212 194 170 157 159 158 152 139 139 132 120 98 78 59 38 39 24 21 37 35 21
318 311 297 4 283 265 265 160 183 221 260 278 236 284 273 314 239 221 81 72 103 147 136 108 126 131 212 208 219 227 249 238 263 207 162 154 152 158 155 144 139 143 139 110 108 88 86 46 49 39 39 47 44 37
322 296 307 30 16 323 227 187 172 206 278 252 256 255 262 278 267 267 257 238 165 138 123 140 181 217 154 221 233 207 216 204 296 165 161 166 167 159 155 146 136 137 135 115 112 103 102 56 49 48 45 51 51 48
306 273 274 356 72 226 166 163 186 237 264 256 262 282 229 246 271 250 190 152 168 155 137 221 226 171 202 205 210 224 238 226 174 164 165 165 164 161 158 158 161 170 152 126 105 100 92 71 54 55 55 56 57 51
295 272 255 348 171 135 275 186 244 289 264 280 275 283 274 271 262 245 296 222 261 182 177 270 219 214 232 221 212 186 177 179 171 166 163 156 164 166 167 167 152 152 164 167 131 104 102 77 62 56 55 56 57 55
289 239 345 72 151 187 299 271 236 270 279 301 278 284 285 273 276 250 229 206 165 150 223 224 220 234 231 237 237 225 189 183 171 167 170 170 168 169 173 175 173 159 152 155 140 137 98 104 73 61 57 57 58 57
244 211 215 162 199 203 285 237 246 246 275 270 287 293 283 281 258 222 187 186 184 213 233 231 235 239 243 228 233 195 173 180 184 183 180 177 172 174 170 158 167 160 144 145 141 127 102 124 93 68 59 60 59 58
187 171 204 221 256 245 256 238 248 289 262 272 293 270 274 292 285 221 172 182 216 235 231 244 247 244 205 211 196 179 178 181 204 204 195 183 180 183 189 184 190 186 172 166 145 115 88 104 110 81 61 63 59 59
102 177 223 174 202 234 261 210 246 224 251 266 303 281 259 260 253 179 210 215 230 245 251 258 252 230 220 201 178 176 182 204 193 199 220 207 202 201 200 200 206 202 187 173 159 130 101 96 119 104 82 65 59 58
135 187 205 215 211 260 242 231 233 258 268 271 292 282 256 236 249 217 252 334 332 285 286 225 225 222 196 200 196 191 187 211 210 224 211 207 195 199 201 205 190 187 180 167 160 153 135 111 102 111 129 72 62 54
185 203 206 223 215 244 225 204 216 207 266 249 259 270 274 254 121 233 210 353 27 49 76 168 201 204 205 198 191 188 186 197 215 174 198 196 194 209 222 187 180 180 183 181 169 163 156 145 113 65 110 109 59 42
219 206 203 206 215 210 224 202 204 213 220 246 230 257 312 95 187 235 79 35 33 36 47 42 50 119 219 219 207 200 208 199 214 193 207 197 195 192 184 178 177 181 190 204 196 183 171 165 151 105 88 84 55 15
232 227 219 229 246 269 262 252 206 186 217 236 259 339 34 263 229 104 120 129 30 40 26 352 317 264 249 242 223 214 199 193 194 203 188 186 194 196 193 185 189 193 184 197 207 216 210 181 175 168 154 136 59 20
246 259 207 202 205 233 272 255 185 235 262 346 141 188 245 226 160 162 178 195 341 337 338 313 303 301 249 219 212 206 195 195 181 198 183 189 188 188 193 190 184 182 182 199 212 213 218 213 201 197 190 188 24 6
245 240 241 225 217 236 220 218 256 177 151 163 230 239 269 43 171 193 216 254 283 288 301 298 292 272 215 201 211 198 197 187 164 175 174 176 187 189 191 193 183 174 181 191 192 206 210 201 183 193 217 308 340 339
251 205 221 201 182 222 242 229 252 145 170 195 171 174 221 241 266 271 282 286 282 266 271 279 269 187 192 193 168 168 184 193 177 174 164 185 181 176 176 176 175 185 193 196 193 186 189 191 184 186 215 327 337 344
251 211 210 204 240 243 215 164 142 152 227 203 250 214 202 212 280 298 342 349 334 292 241 200 184 197 209 203 192 178 171 174 180 179 176 200 185 170 171 178 178 168 165 168 171 176 182 187 200 222 272 310 334 345
212 215 204 210 249 177 188 244 245 212 225 229 226 192 171 217 238 252 322 338 316 303 189 184 180 147 162 171 181 177 166 169 180 184 195 180 174 171 167 164 165 173 182 188 196 201 207 216 229 262 294 325 344 356
207 203 210 226 262 221 209 188 221 236 231 234 219 200 192 206 224 223 217 245 324 353 212 199 159 168 137 140 162 175 186 181 172 168 169 170 164 165 157 155 158 171 187 196 196 201 215 233 246 258 294 331 358 11
Wind_Speed_850mb
37 34 37 39 37 33 31 31 35 33 35 36 35 22 17 16 13 15 12 11 8 7 22 19 9 5 2 6 6 4 5 5 6 4 3 2 1 1 2 1 5 6 5 5 6 8 12 6 16 4 2 20 20 18
35 34 35 40 41 38 32 30 31 34 35 34 32 28 19 17 19 14 23 14 12 13 13 19 32 34 19 12 4 6 3 4 5 5 3 3 4 3 5 5 4 4 5 3 8 8 5 7 16 11 8 13 20 26
39 36 37 38 40 40 35 32 33 34 36 33 31 30 22 19 16 20 20 15 10 14 17 7 7 12 11 6 15 4 4 6 6 8 7 3 4 4 2 7 4 7 5 5 1 2 7 15 14 15 15 14 21 15
35 35 35 36 35 37 36 34 33 34 33 33 34 28 21 21 26 8 18 18 14 6 2 5 9 12 14 12 7 5 9 11 17 9 5 4 4 5 3 6 6 11 5 5 8 3 5 20 18 21 11 11 15 19
36 37 31 33 32 33 37 35 32 32 33 37 31 21 19 19 23 24 18 16 13 4 3 14 14 5 17 17 5 3 11 15 7 6 4 4 4 0 5 2 6 4 5 3 7 6 6 1 9 11 6 13 22 26
37 32 33 33 32 35 40 36 30 30 32 36 21 13 16 17 13 8 7 24 13 8 3 4 6 5 19 19 10 16 9 6 4 6 4 5 10 4 3 5 6 10 12 9 3 14 1 10 7 7 10 13 21 26
36 33 31 31 32 33 33 35 27 32 30 27 15 7 15 21 15 11 3 2 14 14 3 6 10 5 24 20 12 9 7 4 4 6 3 5 7 19 5 5 6 4 3 4 8 7 5 9 5 10 18 23 27 28
36 36 32 31 30 33 33 34 27 28 24 20 11 8 18 14 13 18 11 14 16 5 4 2 6 1 24 9 7 7 6 5 3 6 5 6 5 10 6 14 11 12 8 13 11 11 7 3 8 17 21 31 37 31
43 36 31 27 28 31 34 29 25 24 19 15 11 9 17 10 9 9 22 16 7 3 3 4 5 6 14 9 8 5 7 4 10 4 6 8 5 7 10 10 6 14 10 11 12 9 9 15 19 20 28 32 39 35
41 32 31 29 27 29 27 27 22 17 14 12 23 4 6 9 11 21 6 4 4 5 6 4 5 4 6 11 7 9 3 3 3 8 7 6 5 6 4 12 16 16 12 10 7 8 11 15 17 23 26 32 38 45
38 34 35 31 26 27 25 24 19 15 10 4 6 5 19 18 6 4 4 3 4 3 9 10 18 4 3 5 5 7 4 2 4 5 5 4 4 4 14 23 22 18 16 14 14 13 14 15 18 26 33 30 40 45
37 35 37 30 23 25 21 23 14 10 8 9 8 14 13 3 2 3 4 3 5 6 10 11 13 17 4 4 6 3 4 5 7 11 4 4 4 9 30 28 26 19 18 20 17 16 16 16 16 29 44 29 40 40
38 37 36 27 22 22 18 16 12 11 12 14 5 5 6 4 4 5 7 5 4 6 12 13 5 11 6 5 3 0 7 7 5 4 3 3 11 18 31 34 26 20 21 19 18 16 16 14 15 30 43 30 41 40
35 39 34 23 20 16 16 8 11 8 7 4 5 6 4 5 6 7 5 4 8 5 14 26 11 5 5 5 5 6 6 3 3 4 3 3 20 36 37 32 26 23 19 17 14 14 20 20 16 29 37 36 45 51
38 30 15 21 13 12 9 11 24 8 2 2 1 4 8 12 11 11 16 6 6 9 29 17 9 6 1 2 4 5 4 5 4 4 5 18 37 39 37 31 23 25 20 16 12 16 19 22 20 31 33 38 43 49
37 21 11 10 4 6 8 13 15 11 2 2 5 5 7 4 3 10 3 6 4 17 17 9 5 4 5 4 5 7 2 4 4 5 22 40 35 34 35 26 21 24 16 12 14 12 9 22 29 37 39 36 45 46
27 9 16 7 6 2 6 7 4 3 3 4 6 14 22 23 21 14 7 7 18 5 4 5 6 11 4 5 4 5 6 4 8 30 44 38 34 34 34 28 26 25 21 17 15 12 11 17 24 33 45 41 43 51
24 19 20 18 3 4 8 1 3 3 6 8 9 7 9 16 18 12 14 17 13 7 5 5 2 5 6 5 5 6 10 11 23 45 38 32 31 31 31 27 21 19 18 18 18 16 14 16 25 32 38 41 40 50
22 21 11 7 10 3 1 2 3 4 8 11 17 17 18 15 17 15 7 19 10 16 5 4 3 5 6 8 8 15 23 18 38 38 33 26 26 28 29 27 20 16 17 19 14 15 15 18 26 31 35 43 49 48
19 14 4 6 12 2 1 2 3 5 7 9 15 14 14 18 17 13 16 17 16 8 6 5 7 5 6 7 9 14 27 33 38 35 34 30 27 25 26 27 26 20 16 15 16 13 12 14 21 28 33 40 45 53
8 8 4 4 11 5 3 4 6 7 8 10 16 14 12 14 10 11 24 25 16 8 6 14 12 9 6 9 5 15 37 39 40 34 37 36 28 31 29 26 30 22 18 20 17 14 8 10 16 22 29 36 39 42
3 7 6 11 3 3 6 7 7 9 7 11 15 7 10 7 5 5 16 10 8 15 18 23 19 12 12 14 13 21 40 25 32 27 24 29 36 33 32 31 28 30 17 17 15 13 12 11 11 14 21 27 32 35
4 18 6 7 5 4 5 7 7 7 4 6 9 5 5 5 5 4 6 9 14 25 27 21 16 14 18 17 25 25 28 31 30 30 31 27 28 29 29 28 25 31 28 23 17 13 12 11 10 9 13 20 24 28
6 6 4 5 8 5 5 7 7 6 6 5 3 6 5 6 3 1 3 6 20 17 14 15 17 17 19 20 27 33 29 28 36 29 37 40 34 34 32 25 29 33 29 25 21 17 14 10 8 7 8 11 17 21
6 7 6 7 8 7 7 5 5 1 4 3 4 5 5 3 1 2 2 7 24 27 11 8 19 23 20 20 24 25 23 27 21 34 29 37 38 32 28 34 37 33 33 26 23 17 15 10 7 8 8 6 10 15
6 11 10 11 7 7 6 5 8 9 6 6 8 5 4 2 2 4 2 9 15 22 24 15 9 3 11 22 28 33 25 36 13 30 31 36 42 29 46 47 42 35 31 24 20 17 13 11 9 8 10 9 9 11
6 8 13 14 9 8 6 8 5 3 6 5 2 3 3 2 5 3 8 5 8 13 9 11 9 11 15 14 20 24 28 36 30 25 41 44 41 29 31 42 35 28 31 28 21 14 10 11 13 11 8 7 5 11
10 7 9 11 12 13 5 3 7 5 3 2 7 3 4 4 1 5 6 5 8 7 7 11 10 10 12 18 22 30 26 35 37 24 41 45 46 39 30 25 22 24 25 18 17 18 14 9 10 11 9 2 3 8
9 9 6 9 12 8 10 7 5 7 9 4 2 3 3 2 4 4 11 12 13 9 10 9 8 6 6 14 20 37 39 26 48 40 49 43 44 43 37 35 32 29 20 16 15 13 13 11 11 9 5 3 7 12
9 12 7 6 6 7 7 6 3 6 8 4 2 3 2 2 4 8 12 14 14 14 13 8 4 11 15 18 27 28 24 32 43 39 32 28 33 40 40 35 30 23 20 20 22 23 20 17 14 9 3 4 7 10
6 9 8 9 6 5 8 11 9 4 6 8 4 9 7 4 5 9 8 9 8 8 8 8 8 10 20 24 26 34 35 44 41 35 21 18 32 40 35 28 26 25 25 22 19 16 14 14 11 7 6 8 10 13
8 7 5 4 1 12 10 4 5 4 3 4 4 4 5 4 5 4 3 4 4 3 4 11 19 15 7 14 38 37 37 42 36 27 24 32 38 37 33 27 22 18 17 18 16 17 20 18 13 10 9 10 11 11
3 5 4 2 5 6 6 9 7 4 6 5 8 11 12 9 7 6 4 3 4 5 3 6 16 25 22 22 24 28 32 37 37 30 21 25 25 26 24 17 12 10 12 13 16 17 16 14 11 7 5 5 6 9
Wind_Direction_850mb
323 327 327 326 326 323 320 324 324 327 326 323 323 286 260 252 251 257 253 237 256 263 285 275 231 122 81 134 143 203 45 351 29 72 77 298 154 141 188 245 198 208 216 196 190 214 257 10 357 318 270 291 329 333
322 323 325 328 326 324 322 322 325 324 325 325 323 317 252 238 243 254 254 221 247 265 272 275 272 257 261 223 194 161 178 173 169 104 112 325 333 21 163 284 95 224 214 209 221 225 248 219 244 219 222 272 294 313
321 320 314 318 321 325 322 320 323 320 322 321 318 317 246 232 239 245 249 233 237 284 298 314 16 162 175 143 197 173 205 197 156 122 137 112 266 126 250 244 284 319 195 216 151 231 213 197 203 237 228 267 290 289
320 318 313 319 320 319 319 319 320 319 321 319 316 307 244 224 226 308 222 248 240 284 350 270 74 133 169 179 197 210 246 190 150 144 121 146 222 193 243 246 197 226 297 268 263 257 199 243 260 276 289 272 312 316
316 318 307 312 315 324 323 317 312 316 322 322 318 301 231 215 221 251 252 237 199 243 238 299 311 297 210 212 204 240 185 158 142 115 115 212 241 175 263 276 254 213 191 173 243 288 249 351 57 28 335 323 320 317
318 313 312 312 309 320 317 322 311 313 322 328 315 300 210 209 202 201 224 217 213 232 281 322 322 352 178 215 160 145 148 128 103 147 179 250 249 211 262 253 247 247 250 191 258 319 47 138 21 356 335 329 321 315
325 311 309 312 315 317 311 318 310 309 315 326 304 250 210 211 225 203 219 218 204 208 220 324 337 82 187 160 149 159 162 152 139 159 203 240 265 192 249 234 218 322 269 139 68 150 49 20 350 354 337 330 329 321
320 323 309 309 312 313 313 317 316 320 315 312 280 209 182 216 229 203 176 159 150 189 176 120 276 333 194 176 140 193 182 173 187 184 230 229 250 213 258 243 250 205 118 82 82 78 92 83 2 352 344 339 338 336
320 319 317 310 309 314 313 313 309 318 300 294 289 201 183 165 177 180 173 167 176 226 196 159 168 214 173 168 126 155 182 217 178 216 232 178 203 225 231 174 245 237 189 139 86 51 54 13 6 356 349 352 354 336
325 316 320 312 306 318 313 321 314 305 287 244 162 76 102 136 164 160 140 196 212 214 211 212 216 250 188 159 153 171 169 221 242 222 193 211 249 281 119 225 174 144 128 145 110 69 27 26 17 3 350 337 336 346
322 318 316 313 312 317 309 325 323 320 170 135 158 91 131 137 112 137 160 205 180 276 211 222 204 202 124 125 179 188 176 251 248 221 205 235 251 270 126 132 133 125 117 102 100 89 70 32 32 20 2 345 335 346
312 314 311 304 302 310 304 304 299 238 226 171 145 128 147 154 194 207 199 155 220 242 192 176 194 198 148 113 93 185 243 205 244 157 223 232 178 169 152 140 134 123 116 107 71 82 50 40 25 16 12 12 1 355
311 312 307 299 290 299 280 305 288 235 192 139 128 128 161 167 185 220 202 209 224 213 184 166 123 158 127 115 145 219 240 236 173 229 229 226 184 170 150 144 135 125 125 109 78 73 49 40 7 10 11 18 12 4
311 311 308 307 292 276 286 312 195 118 150 155 167 153 222 172 247 202 223 181 285 247 199 155 115 121 138 151 205 252 245 276 256 236 204 174 164 155 154 152 140 133 128 120 82 81 59 37 21 7 17 32 23 11
315 310 328 334 284 265 259 210 205 204 153 224 219 219 215 246 262 331 310 245 252 298 159 119 86 109 155 255 223 266 249 248 232 212 194 170 157 159 158 152 139 139 132 120 98 78 59 38 39 24 21 37 35 21
318 311 297 4 283 265 265 160 183 221 260 278 236 284 273 314 239 221 81 72 103 147 136 108 126 131 212 208 219 227 249 238 263 207 162 154 152 158 155 144 139 143 139 110 108 88 86 46 49 39 39 47 44 37
322 296 307 30 16 323 227 187 172 206 278 252 256 255 262 278 267 267 257 238 165 138 123 140 181 217 154 221 233 207 216 204 296 165 161 166 167 159 155 146 136 137 135 115 112 103 102 56 49 48 45 51 51 48
306 273 274 356 72 226 166 163 186 237 264 256 262 282 229 246 271 250 190 152 168 155 137 221 226 171 202 205 210 224 238 226 174 164 165 165 164 161 158 158 161 170 152 126 105 100 92 71 54 55 55 56 57 51
295 272 255 348 171 135 275 186 244 289 264 280 275 283 274 271 262 245 296 222 261 182 177 270 219 214 232 221 212 186 177 179 171 166 163 156 164 166 167 167 152 152 164 167 131 104 102 77 62 56 55 56 57 55
289 239 345 72 151 187 299 271 236 270 279 301 278 284 285 273 276 250 229 206 165 150 223 224 220 234 231 237 237 225 189 183 171 167 170 170 168 169 173 175 173 159 152 155 140 137 98 104 73 61 57 57 58 57
244 211 215 162 199 203 285 237 246 246 275 270 287 293 283 281 258 222 187 186 184 213 233 231 235 239 243 228 233 195 173 180 184 183 180 177 172 174 170 158 167 160 144 145 141 127 102 124 93 68 59 60 59 58
187 171 204 221 256 245 256 238 248 289 262 272 293 270 274 292 285 221 172 182 216 235 231 244 247 244 205 211 196 179 178 181 204 204 195 183 180 183 189 184 190 186 172 166 145 115 88 104 110 81 61 63 59 59
102 177 223 174 202 234 261 210 246 224 251 266 303 281 259 260 253 179 210 215 230 245 251 258 252 230 220 201 178 176 182 204 193 199 220 207 202 201 200 200 206 202 187 173 159 130 101 96 119 104 82 65 59 58
135 187 205 215 211 260 242 231 233 258 268 271 292 282 256 236 249 217 252 334 332 285 286 225 225 222 196 200 196 191 187 211 210 224 211 207 195 199 201 205 190 187 180 167 160 153 135 111 102 111 129 72 62 54
185 203 206 223 215 244 225 204 216 207 266 249 259 270 274 254 121 233 210 353 27 49 76 168 201 204 205 198 191 188 186 197 215 174 198 196 194 209 222 187 180 180 183 181 169 163 156 145 113 65 110 109 59 42
219 206 203 206 215 210 224 202 204 213 220 246 230 257 312 95 187 235 79 35 33 36 47 42 50 119 219 219 207 200 208 199 214 193 207 197 195 192 184 178 177 181 190 204 196 183 171 165 151 105 88 84 55 15
232 227 219 229 246 269 262 252 206 186 217 236 259 339 34 263 229 104 120 129 30 40 26 352 317 264 249 242 223 214 199 193 194 203 188 186 194 196 193 185 189 193 184 197 207 216 210 181 175 168 154 136 59 20
246 259 207 202 205 233 272 255 185 235 262 346 141 188 245 226 160 162 178 195 341 337 338 313 303 301 249 219 212 206 195 195 181 198 183 189 188 188 193 190 184 182 182 199 212 213 218 213 201 197 190 188 24 6
245 240 241 225 217 236 220 218 256 177 151 163 230 239 269 43 171 193 216 254 283 288 301 298 292 272 215 201 211 198 197 187 164 175 174 176 187 189 191 193 183 174 181 191 192 206 210 201 183 193 217 308 340 339
251 205 221 201 182 222 242 229 252 145 170 195 171 174 221 241 266 271 282 286 282 266 271 279 269 187 192 193 168 168 184 193 177 174 164 185 181 176 176 176 175 185 193 196 193 186 189 191 184 186 215 327 337 344
251 211 210 204 240 243 215 164 142 152 227 203 250 214 202 212 280 298 342 349 334 292 241 200 184 197 209 203 192 178 171 174 180 179 176 200 185 170 171 178 178 168 165 168 171 176 182 187 200 222 272 310 334 345
212 215 204 210 249 177 188 244 245 212 225 229 226 192 171 217 238 252 322 338 316 303 189 184 180 147 162 171 181 177 166 169 180 184 195 180 174 171 167 164 165 173 182 188 196 201 207 216 229 262 294 325 344 356
207 203 210 226 262 221 209 188 221 236 231 234 219 200 192 206 224 223 217 245 324 353 212 199 159 168 137 140 162 175 186 181 172 168 169 170 164 165 157 155 158 171 187 196 196 201 215 233 246 258 294 331 358 11